Time,TemperatureF,DewpointF,PressureIn,WindDirection,WindDirectionDegrees,WindSpeedMPH,WindSpeedGustMPH,Humidity,HourlyPrecipIn,Conditions,Clouds,dailyrainin,SoftwareType,DateUTC
2013-04-14 00:00:00,37.6,31.7,29.88,East,83,4.0,11.0,79,0.00,,OVC085,0.01,VWS V14.01,2013-04-14 05:00:00,
2013-04-14 00:05:00,37.6,32.0,29.88,East,81,2.0,11.0,80,0.00,,OVC085,0.00,VWS V14.01,2013-04-14 05:05:00,
2013-04-14 00:10:00,37.5,32.2,29.88,ENE,73,2.0,11.0,81,0.00,,OVC085,0.00,VWS V14.01,2013-04-14 05:10:00,
2013-04-14 00:15:00,37.3,32.3,29.88,ESE,113,8.0,11.0,82,0.00,,OVC085,0.00,VWS V14.01,2013-04-14 05:15:00,
2013-04-14 00:20:00,37.3,32.0,29.88,East,87,3.0,12.0,81,0.00,,OVC085,0.00,VWS V14.01,2013-04-14 05:20:00,
2013-04-14 00:25:00,37.1,31.8,29.88,ENE,77,3.0,12.0,81,0.00,,OVC085,0.00,VWS V14.01,2013-04-14 05:25:00,
2013-04-14 00:30:00,37.0,32.0,29.88,ENE,71,4.0,12.0,82,0.00,,OVC085,0.00,VWS V14.01,2013-04-14 05:30:00,
2013-04-14 00:35:00,36.7,32.0,29.87,East,81,5.0,8.0,83,0.00,,OVC085,0.00,VWS V14.01,2013-04-14 05:35:00,
2013-04-14 00:40:00,36.4,32.0,29.87,East,93,11.0,11.0,84,0.00,,OVC085,0.00,VWS V14.01,2013-04-14 05:40:00,
2013-04-14 00:45:00,36.3,31.9,29.88,East,89,7.0,12.0,84,0.00,,OVC085,0.00,VWS V14.01,2013-04-14 05:45:00,
2013-04-14 00:50:00,36.1,31.5,29.87,East,84,7.0,13.0,83,0.00,,OVC085,0.00,VWS V14.01,2013-04-14 05:50:00,
2013-04-14 00:55:00,36.0,31.4,29.87,ESE,106,8.0,13.0,83,0.00,,OVC085,0.00,VWS V14.01,2013-04-14 05:55:00,
2013-04-14 01:00:00,35.8,31.1,29.86,East,89,10.0,14.0,83,0.00,,OVC085,0.00,VWS V14.01,2013-04-14 06:00:00,
2013-04-14 01:05:00,35.7,31.4,29.86,SE,134,5.0,12.0,84,0.00,,OVC085,0.00,VWS V14.01,2013-04-14 06:05:00,
2013-04-14 01:10:00,35.5,31.5,29.85,ESE,113,12.0,12.0,85,0.00,,OVC085,0.00,VWS V14.01,2013-04-14 06:10:00,
2013-04-14 01:15:00,35.4,31.4,29.85,SE,131,7.0,16.0,85,0.00,,OVC085,0.00,VWS V14.01,2013-04-14 06:15:00,
2013-04-14 01:20:00,35.3,31.2,29.86,ENE,62,5.0,16.0,85,0.00,,OVC085,0.00,VWS V14.01,2013-04-14 06:20:00,
2013-04-14 01:25:00,35.2,31.1,29.85,East,96,14.0,16.0,85,0.00,,OVC085,0.00,VWS V14.01,2013-04-14 06:25:00,
2013-04-14 01:30:00,35.1,31.3,29.84,ENE,75,9.0,16.0,86,0.00,,OVC085,0.00,VWS V14.01,2013-04-14 06:30:00,
2013-04-14 01:35:00,34.9,31.1,29.84,East,101,5.0,15.0,86,0.00,,OVC085,0.00,VWS V14.01,2013-04-14 06:35:00,
2013-04-14 01:40:00,34.9,31.1,29.84,East,88,10.0,15.0,86,0.00,,OVC085,0.00,VWS V14.01,2013-04-14 06:40:00,
2013-04-14 01:45:00,34.8,31.0,29.83,East,81,6.0,15.0,86,0.00,,OVC085,0.00,VWS V14.01,2013-04-14 06:45:00,
2013-04-14 01:50:00,34.9,30.9,29.83,ESE,106,12.0,19.0,85,0.00,,OVC085,0.00,VWS V14.01,2013-04-14 06:50:00,
2013-04-14 01:55:00,34.8,30.8,29.84,East,96,7.0,19.0,85,0.00,,OVC085,0.00,VWS V14.01,2013-04-14 06:55:00,
2013-04-14 02:00:00,34.7,31.0,29.83,ESE,109,7.0,19.0,86,0.00,,OVC085,0.00,VWS V14.01,2013-04-14 07:00:00,
2013-04-14 02:05:00,34.5,31.0,29.84,East,101,12.0,15.0,87,0.00,,OVC060,0.00,VWS V14.01,2013-04-14 07:05:00,
2013-04-14 02:10:00,34.4,31.2,29.83,East,89,9.0,16.0,88,0.00,,OVC060,0.00,VWS V14.01,2013-04-14 07:10:00,
2013-04-14 02:15:00,34.3,31.1,29.83,East,82,8.0,16.0,88,0.00,,OVC060,0.00,VWS V14.01,2013-04-14 07:15:00,
2013-04-14 02:20:00,34.2,31.6,29.83,SE,128,9.0,16.0,90,0.01,,OVC060,0.01,VWS V14.01,2013-04-14 07:20:00,
2013-04-14 02:25:00,34.0,31.4,29.82,ESE,105,9.0,16.0,90,0.01,,OVC060,0.01,VWS V14.01,2013-04-14 07:25:00,
2013-04-14 02:30:00,33.8,31.5,29.83,East,86,4.0,16.0,91,0.02,,OVC060,0.02,VWS V14.01,2013-04-14 07:30:00,
2013-04-14 02:35:00,33.7,31.4,29.83,East,99,13.0,13.0,91,0.03,,OVC060,0.03,VWS V14.01,2013-04-14 07:35:00,
2013-04-14 02:40:00,33.7,31.4,29.84,East,79,5.0,13.0,91,0.03,,OVC060,0.03,VWS V14.01,2013-04-14 07:40:00,
2013-04-14 02:45:00,33.7,31.6,29.85,ESE,121,5.0,13.0,92,0.04,,OVC060,0.04,VWS V14.01,2013-04-14 07:45:00,
2013-04-14 02:50:00,33.6,31.5,29.84,East,99,7.0,13.0,92,0.07,,OVC060,0.07,VWS V14.01,2013-04-14 07:50:00,
2013-04-14 02:55:00,33.5,31.7,29.84,East,101,6.0,13.0,93,0.09,,OVC060,0.09,VWS V14.01,2013-04-14 07:55:00,
2013-04-14 03:00:00,33.5,31.4,29.83,East,100,11.0,15.0,92,0.10,,OVC060,0.10,VWS V14.01,2013-04-14 08:00:00,
2013-04-14 03:05:00,33.4,31.6,29.83,East,88,11.0,15.0,93,0.11,,-RA,0.11,VWS V14.01,2013-04-14 08:05:00,
2013-04-14 03:10:00,33.3,31.5,29.84,ESE,108,5.0,15.0,93,0.13,,-RA,0.13,VWS V14.01,2013-04-14 08:10:00,
2013-04-14 03:15:00,33.2,31.7,29.84,East,101,6.0,15.0,94,0.14,,-RA,0.14,VWS V14.01,2013-04-14 08:15:00,
2013-04-14 03:20:00,33.2,31.7,29.83,East,98,9.0,16.0,94,0.15,,-RA,0.15,VWS V14.01,2013-04-14 08:20:00,
2013-04-14 03:25:00,33.1,31.6,29.83,East,91,6.0,16.0,94,0.16,,-RA,0.16,VWS V14.01,2013-04-14 08:25:00,
2013-04-14 03:30:00,33.1,31.6,29.83,East,101,18.0,20.0,94,0.17,,-RA,0.17,VWS V14.01,2013-04-14 08:30:00,
2013-04-14 03:35:00,33.1,31.6,29.83,East,95,11.0,18.0,94,0.16,,-RA,0.18,VWS V14.01,2013-04-14 08:35:00,
2013-04-14 03:40:00,33.1,31.8,29.84,East,88,11.0,18.0,95,0.16,,-RA,0.18,VWS V14.01,2013-04-14 08:40:00,
2013-04-14 03:45:00,33.0,31.5,29.84,ESE,110,16.0,18.0,94,0.16,,RA,0.18,VWS V14.01,2013-04-14 08:45:00,
2013-04-14 03:50:00,33.0,31.7,29.83,ESE,114,11.0,18.0,95,0.17,,RA,0.19,VWS V14.01,2013-04-14 08:50:00,
2013-04-14 03:55:00,33.0,31.7,29.83,ESE,117,14.0,19.0,95,0.18,,RA,0.20,VWS V14.01,2013-04-14 08:55:00,
2013-04-14 04:00:00,33.0,31.7,29.83,East,88,15.0,19.0,95,0.19,,-RA,0.21,VWS V14.01,2013-04-14 09:00:00,
2013-04-14 04:05:00,33.0,31.7,29.83,East,88,9.0,15.0,95,0.11,,-RA,0.21,VWS V14.01,2013-04-14 09:05:00,
2013-04-14 04:10:00,32.9,31.6,29.83,East,101,15.0,20.0,95,0.12,,-RA,0.22,VWS V14.01,2013-04-14 09:10:00,
2013-04-14 04:15:00,32.9,31.6,29.82,East,95,11.0,20.0,95,0.13,,-RA,0.23,VWS V14.01,2013-04-14 09:15:00,
2013-04-14 04:20:00,32.9,31.9,29.82,East,91,14.0,20.0,96,0.14,,-RA,0.24,VWS V14.01,2013-04-14 09:20:00,
2013-04-14 04:25:00,32.9,31.9,29.81,ESE,110,9.0,20.0,96,0.15,,-RA,0.25,VWS V14.01,2013-04-14 09:25:00,
2013-04-14 04:30:00,32.9,31.9,29.81,ESE,116,8.0,20.0,96,0.16,,-RA,0.26,VWS V14.01,2013-04-14 09:30:00,
2013-04-14 04:35:00,32.9,31.9,29.80,East,91,13.0,18.0,96,0.09,,-RA,0.26,VWS V14.01,2013-04-14 09:35:00,
2013-04-14 04:40:00,32.9,31.9,29.80,East,98,16.0,20.0,96,0.09,,-RA,0.26,VWS V14.01,2013-04-14 09:40:00,
2013-04-14 04:45:00,33.0,32.0,29.80,East,101,19.0,20.0,96,0.09,,-RA,0.26,VWS V14.01,2013-04-14 09:45:00,
2013-04-14 04:50:00,32.9,31.6,29.80,East,97,20.0,20.0,95,0.09,,-RA,0.26,VWS V14.01,2013-04-14 09:50:00,
2013-04-14 04:55:00,32.9,31.9,29.79,East,79,15.0,20.0,96,0.09,,-RA,0.26,VWS V14.01,2013-04-14 09:55:00,
2013-04-14 05:00:00,32.9,31.9,29.79,ESE,110,10.0,20.0,96,0.10,,-RA,0.27,VWS V14.01,2013-04-14 10:00:00,
2013-04-14 05:05:00,32.9,31.9,29.78,ESE,106,14.0,20.0,96,0.06,,-RA,0.27,VWS V14.01,2013-04-14 10:05:00,
2013-04-14 05:10:00,33.0,32.0,29.78,East,96,17.0,20.0,96,0.06,,-RA,0.27,VWS V14.01,2013-04-14 10:10:00,
2013-04-14 05:15:00,33.0,32.0,29.77,East,91,10.0,20.0,96,0.06,,-RA,0.27,VWS V14.01,2013-04-14 10:15:00,
2013-04-14 05:20:00,33.0,32.0,29.77,ESE,110,12.0,20.0,96,0.07,,-RA,0.28,VWS V14.01,2013-04-14 10:20:00,
2013-04-14 05:25:00,33.0,32.0,29.77,East,100,13.0,23.0,96,0.07,,-RA,0.28,VWS V14.01,2013-04-14 10:25:00,
2013-04-14 05:30:00,33.1,32.1,29.75,East,98,16.0,23.0,96,0.08,,-RA,0.29,VWS V14.01,2013-04-14 10:30:00,
2013-04-14 05:35:00,33.1,32.1,29.75,ESE,108,15.0,22.0,96,0.04,,-RA,0.30,VWS V14.01,2013-04-14 10:35:00,
2013-04-14 05:40:00,33.1,32.1,29.74,ESE,110,20.0,22.0,96,0.05,,-RA,0.31,VWS V14.01,2013-04-14 10:40:00,
2013-04-14 05:45:00,33.2,32.2,29.74,ESE,106,12.0,24.0,96,0.05,,-RA,0.31,VWS V14.01,2013-04-14 10:45:00,
2013-04-14 05:50:00,33.2,32.2,29.73,ESE,115,12.0,24.0,96,0.06,,-RA,0.32,VWS V14.01,2013-04-14 10:50:00,
2013-04-14 05:55:00,33.2,32.2,29.74,ESE,107,13.0,24.0,96,0.06,,-RA,0.32,VWS V14.01,2013-04-14 10:55:00,
2013-04-14 06:00:00,33.2,32.2,29.73,ESE,111,15.0,24.0,96,0.07,,-RA,0.33,VWS V14.01,2013-04-14 11:00:00,
2013-04-14 06:05:00,33.3,32.3,29.73,ESE,116,16.0,21.0,96,0.07,,-RA,0.34,VWS V14.01,2013-04-14 11:05:00,
2013-04-14 06:10:00,33.3,32.3,29.73,ESE,103,19.0,23.0,96,0.08,,-RA,0.35,VWS V14.01,2013-04-14 11:10:00,
2013-04-14 06:15:00,33.4,32.4,29.72,ESE,121,12.0,24.0,96,0.09,,-RA,0.36,VWS V14.01,2013-04-14 11:15:00,
2013-04-14 06:20:00,33.5,32.5,29.72,East,95,16.0,24.0,96,0.09,,-RA,0.36,VWS V14.01,2013-04-14 11:20:00,
2013-04-14 06:25:00,33.6,32.6,29.72,East,97,12.0,24.0,96,0.09,,-RA,0.36,VWS V14.01,2013-04-14 11:25:00,
2013-04-14 06:30:00,33.6,32.6,29.72,ESE,122,16.0,24.0,96,0.10,,-RA,0.37,VWS V14.01,2013-04-14 11:30:00,
2013-04-14 06:35:00,33.7,32.9,29.72,ESE,118,16.0,21.0,97,0.09,,-RA,0.38,VWS V14.01,2013-04-14 11:35:00,
2013-04-14 06:40:00,33.7,32.9,29.73,ESE,104,14.0,21.0,97,0.09,,-RA,0.38,VWS V14.01,2013-04-14 11:40:00,
2013-04-14 06:45:00,33.8,33.0,29.73,ESE,115,18.0,22.0,97,0.11,,-RA,0.40,VWS V14.01,2013-04-14 11:45:00,
2013-04-14 06:50:00,33.9,33.1,29.73,ESE,106,13.0,22.0,97,0.12,,-RA,0.41,VWS V14.01,2013-04-14 11:50:00,
2013-04-14 06:55:00,34.0,33.2,29.73,ESE,118,19.0,22.0,97,0.15,,-RA,0.44,VWS V14.01,2013-04-14 11:55:00,
2013-04-14 07:00:00,34.1,33.3,29.73,ESE,106,11.0,23.0,97,0.17,,-RA,0.46,VWS V14.01,2013-04-14 12:00:00,
2013-04-14 07:05:00,34.1,33.3,29.73,ESE,115,13.0,21.0,97,0.15,,RA,0.48,VWS V14.01,2013-04-14 12:05:00,
2013-04-14 07:10:00,34.1,33.1,29.73,ESE,110,11.0,21.0,96,0.18,,RA,0.51,VWS V14.01,2013-04-14 12:10:00,
2013-04-14 07:15:00,34.2,33.4,29.74,ESE,110,12.0,21.0,97,0.21,,RA,0.54,VWS V14.01,2013-04-14 12:15:00,
2013-04-14 07:20:00,34.2,33.4,29.72,East,101,18.0,21.0,97,0.23,,RA,0.56,VWS V14.01,2013-04-14 12:20:00,
2013-04-14 07:25:00,34.2,33.4,29.72,East,92,15.0,23.0,97,0.25,,RA,0.58,VWS V14.01,2013-04-14 12:25:00,
2013-04-14 07:30:00,34.2,33.4,29.73,ESE,104,16.0,23.0,97,0.27,,RA,0.60,VWS V14.01,2013-04-14 12:30:00,
2013-04-14 07:35:00,34.2,33.4,29.72,ESE,115,19.0,20.0,97,0.26,,RA,0.63,VWS V14.01,2013-04-14 12:35:00,
2013-04-14 07:40:00,34.2,33.4,29.71,ESE,111,22.0,22.0,97,0.29,,RA,0.66,VWS V14.01,2013-04-14 12:40:00,
2013-04-14 07:45:00,34.1,33.3,29.69,East,89,7.0,28.0,97,0.31,,RA,0.68,VWS V14.01,2013-04-14 12:45:00,
2013-04-14 07:50:00,34.1,33.3,29.69,East,91,21.0,28.0,97,0.33,,RA,0.70,VWS V14.01,2013-04-14 12:50:00,
2013-04-14 07:55:00,34.1,33.3,29.69,ESE,117,18.0,28.0,97,0.35,,RA,0.72,VWS V14.01,2013-04-14 12:55:00,
2013-04-14 08:00:00,34.2,33.4,29.68,ESE,115,14.0,28.0,97,0.37,,RA,0.74,VWS V14.01,2013-04-14 13:00:00,
2013-04-14 08:05:00,34.3,33.8,29.69,East,96,18.0,21.0,98,0.30,,RA,0.76,VWS V14.01,2013-04-14 13:05:00,
2013-04-14 08:10:00,34.3,33.8,29.69,ESE,110,19.0,23.0,98,0.31,,RA,0.77,VWS V14.01,2013-04-14 13:10:00,
2013-04-14 08:15:00,34.3,33.8,29.67,ESE,105,22.0,26.0,98,0.34,,RA,0.80,VWS V14.01,2013-04-14 13:15:00,
2013-04-14 18:30:00,51.6,51.6,29.41,ESE,118,7.0,7.0,100,1.07,,RA,1.53,VWS V14.01,2013-04-14 23:30:00,
2013-04-14 18:35:00,51.3,51.0,29.42,SE,146,5.0,8.0,99,0.00,,RA,1.53,VWS V14.01,2013-04-14 23:35:00,
2013-04-14 18:40:00,51.3,51.0,29.43,SSE,156,5.0,8.0,99,0.00,,RA,1.53,VWS V14.01,2013-04-14 23:40:00,
2013-04-14 18:45:00,51.1,50.8,29.43,SSE,152,5.0,8.0,99,0.00,,RA,1.53,VWS V14.01,2013-04-14 23:45:00,
2013-04-14 18:50:00,50.9,50.6,29.44,SSE,149,5.0,8.0,99,0.00,,RA,1.53,VWS V14.01,2013-04-14 23:50:00,
2013-04-14 18:55:00,51.1,50.8,29.44,SSE,156,5.0,9.0,99,0.00,,RA,1.53,VWS V14.01,2013-04-14 23:55:00,
2013-04-14 19:00:00,51.5,51.5,29.45,SSW,208,9.0,11.0,100,0.01,,RA,1.54,VWS V14.01,2013-04-15 00:00:00,
2013-04-14 19:05:00,51.9,51.9,29.44,SSW,197,8.0,16.0,100,0.01,,RA,1.54,VWS V14.01,2013-04-15 00:05:00,
2013-04-14 19:10:00,52.2,52.2,29.45,South,187,6.0,16.0,100,0.01,,RA,1.54,VWS V14.01,2013-04-15 00:10:00,
2013-04-14 19:15:00,52.9,52.9,29.45,WSW,245,12.0,21.0,100,0.02,,RA,1.55,VWS V14.01,2013-04-15 00:15:00,
2013-04-14 19:20:00,52.6,52.6,29.45,WSW,238,17.0,21.0,100,0.02,,RA,1.55,VWS V14.01,2013-04-15 00:20:00,
2013-04-14 19:25:00,52.2,51.9,29.46,NW,308,13.0,23.0,99,0.02,,RA,1.55,VWS V14.01,2013-04-15 00:25:00,
2013-04-14 19:30:00,52.0,51.5,29.46,WNW,291,16.0,23.0,98,0.02,,RA,1.55,VWS V14.01,2013-04-15 00:30:00,
2013-04-14 19:33:00,51.8,51.3,29.46,WNW,294,7.0,16.0,98,0.02,,RA,1.55,VWS V14.01,2013-04-15 00:33:00,
2013-04-14 19:38:00,51.4,50.9,29.47,West,266,7.0,16.0,98,0.02,,RA,1.55,VWS V14.01,2013-04-15 00:38:00,
2013-04-14 19:43:00,51.0,50.5,29.47,West,280,10.0,20.0,98,0.02,,RA,1.55,VWS V14.01,2013-04-15 00:43:00,
2013-04-14 19:48:00,50.7,50.2,29.47,West,277,5.0,20.0,98,0.02,,RA,1.55,VWS V14.01,2013-04-15 00:48:00,
2013-04-14 19:53:00,50.5,50.0,29.48,West,266,10.0,20.0,98,0.02,,RA,1.55,VWS V14.01,2013-04-15 00:53:00,
2013-04-14 19:58:00,50.3,49.8,29.48,West,274,10.0,20.0,98,0.02,,RA,1.55,VWS V14.01,2013-04-15 00:58:00,
2013-04-14 20:00:00,50.2,49.7,29.49,WNW,288,7.0,20.0,98,0.02,,RA,1.55,VWS V14.01,2013-04-15 01:00:00,
2013-04-14 20:03:00,50.0,49.5,29.49,West,270,4.0,11.0,98,0.01,,RA,1.55,VWS V14.01,2013-04-15 01:03:00,
2013-04-14 20:08:00,49.8,49.3,29.50,West,276,3.0,11.0,98,0.01,,RA,1.55,VWS V14.01,2013-04-15 01:08:00,
2013-04-14 20:13:00,49.5,49.0,29.50,WNW,284,10.0,11.0,98,0.01,,RA,1.55,VWS V14.01,2013-04-15 01:13:00,
2013-04-14 20:18:00,49.3,48.8,29.50,West,278,11.0,17.0,98,0.01,,RA,1.55,VWS V14.01,2013-04-15 01:18:00,
2013-04-14 20:23:00,49.1,48.3,29.52,WSW,257,17.0,20.0,97,0.01,,RA,1.55,VWS V14.01,2013-04-15 01:23:00,
2013-04-14 20:28:00,48.9,48.1,29.51,WNW,285,14.0,20.0,97,0.01,,RA,1.55,VWS V14.01,2013-04-15 01:28:00,
2013-04-14 20:30:00,48.9,46.4,29.51,WNW,292,12.0,20.0,91,0.01,,RA,1.55,VWS V14.01,2013-04-15 01:30:00,
2013-04-14 20:33:00,48.9,46.1,29.51,WNW,287,12.0,15.0,90,0.00,,RA,1.55,VWS V14.01,2013-04-15 01:33:00,
2013-04-14 20:38:00,48.8,44.8,29.52,West,266,11.0,15.0,86,0.00,,RA,1.55,VWS V14.01,2013-04-15 01:38:00,
2013-04-14 20:43:00,48.5,44.2,29.53,West,280,8.0,15.0,85,0.00,,RA,1.55,VWS V14.01,2013-04-15 01:43:00,
2013-04-14 20:48:00,48.1,43.8,29.53,WNW,283,5.0,18.0,85,0.00,,RA,1.55,VWS V14.01,2013-04-15 01:48:00,
2013-04-14 20:53:00,47.6,42.7,29.53,WNW,300,3.0,18.0,83,0.00,,RA,1.55,VWS V14.01,2013-04-15 01:53:00,
2013-04-14 20:58:00,47.2,42.6,29.53,West,280,6.0,18.0,84,0.00,,RA,1.55,VWS V14.01,2013-04-15 01:58:00,
2013-04-14 21:00:00,46.9,42.3,29.54,WNW,284,2.0,18.0,84,0.00,,RA,1.55,VWS V14.01,2013-04-15 02:00:00,
2013-04-14 21:03:00,46.8,42.2,29.54,WNW,291,4.0,6.0,84,0.00,,RA,1.55,VWS V14.01,2013-04-15 02:03:00,
2013-04-14 21:08:00,46.3,42.0,29.54,WNW,285,2.0,7.0,85,0.00,,RA,1.55,VWS V14.01,2013-04-15 02:08:00,
2013-04-14 21:13:00,46.1,41.2,29.55,WNW,291,2.0,8.0,83,0.00,,RA,1.55,VWS V14.01,2013-04-15 02:13:00,
2013-04-14 21:18:00,45.8,41.2,29.56,WNW,300,3.0,8.0,84,0.00,,RA,1.55,VWS V14.01,2013-04-15 02:18:00,
2013-04-14 21:23:00,45.6,41.0,29.56,NW,308,2.0,10.0,84,0.00,,RA,1.55,VWS V14.01,2013-04-15 02:23:00,
2013-04-14 21:28:00,45.4,40.9,29.56,WNW,297,2.0,10.0,84,0.00,,RA,1.55,VWS V14.01,2013-04-15 02:28:00,
2013-04-14 21:30:00,45.3,40.8,29.56,WNW,283,1.0,10.0,84,0.00,,RA,1.55,VWS V14.01,2013-04-15 02:30:00,
2013-04-14 21:33:00,45.2,40.7,29.57,WNW,293,2.0,4.0,84,0.00,,RA,1.55,VWS V14.01,2013-04-15 02:33:00,
2013-04-14 21:38:00,45.0,40.8,29.56,NW,315,1.0,4.0,85,0.00,,RA,1.55,VWS V14.01,2013-04-15 02:38:00,
2013-04-14 21:43:00,44.9,40.7,29.56,WNW,295,1.0,4.0,85,0.00,,RA,1.55,VWS V14.01,2013-04-15 02:43:00,
2013-04-14 21:48:00,44.8,40.6,29.57,WNW,284,2.0,4.0,85,0.00,,RA,1.55,VWS V14.01,2013-04-15 02:48:00,
2013-04-14 21:53:00,44.6,40.4,29.57,West,278,3.0,4.0,85,0.00,,RA,1.55,VWS V14.01,2013-04-15 02:53:00,
2013-04-14 21:58:00,44.7,40.5,29.57,WNW,288,1.0,5.0,85,0.00,,RA,1.55,VWS V14.01,2013-04-15 02:58:00,
2013-04-14 22:00:00,44.7,40.5,29.57,West,273,3.0,5.0,85,0.00,,RA,1.55,VWS V14.01,2013-04-15 03:00:00,
2013-04-14 22:03:00,44.7,40.2,29.58,West,278,3.0,4.0,84,0.00,,RA,1.55,VWS V14.01,2013-04-15 03:03:00,
2013-04-14 22:08:00,44.8,40.6,29.57,WSW,242,0.0,4.0,85,0.00,,RA,1.55,VWS V14.01,2013-04-15 03:08:00,
2013-04-14 22:13:00,44.7,40.5,29.57,WSW,249,1.0,4.0,85,0.00,,RA,1.55,VWS V14.01,2013-04-15 03:13:00,
2013-04-14 22:18:00,44.5,40.3,29.58,SW,214,1.0,4.0,85,0.00,,RA,1.55,VWS V14.01,2013-04-15 03:18:00,
2013-04-14 22:23:00,44.2,40.3,29.58,West,259,0.0,4.0,86,0.00,,RA,1.55,VWS V14.01,2013-04-15 03:23:00,
2013-04-14 22:28:00,44.0,40.4,29.58,West,273,0.0,4.0,87,0.00,,RA,1.55,VWS V14.01,2013-04-15 03:28:00,
2013-04-14 22:30:00,43.9,40.3,29.58,WSW,255,0.0,4.0,87,0.00,,RA,1.55,VWS V14.01,2013-04-15 03:30:00,
2013-04-14 22:33:00,43.9,40.3,29.58,West,270,2.0,3.0,87,0.00,,RA,1.55,VWS V14.01,2013-04-15 03:33:00,
2013-04-14 22:38:00,44.1,40.5,29.58,WSW,253,1.0,3.0,87,0.00,,RA,1.55,VWS V14.01,2013-04-15 03:38:00,
2013-04-14 22:43:00,44.0,40.4,29.59,WSW,248,1.0,3.0,87,0.00,,RA,1.55,VWS V14.01,2013-04-15 03:43:00,
2013-04-14 22:48:00,44.0,40.4,29.59,West,266,1.0,3.0,87,0.00,,RA,1.55,VWS V14.01,2013-04-15 03:48:00,
2013-04-14 22:53:00,44.0,40.4,29.59,WSW,248,0.0,3.0,87,0.00,,RA,1.55,VWS V14.01,2013-04-15 03:53:00,
2013-04-14 22:58:00,43.8,40.2,29.59,WSW,246,0.0,3.0,87,0.00,,RA,1.55,VWS V14.01,2013-04-15 03:58:00,
2013-04-14 23:00:00,43.8,40.2,29.59,SSW,212,1.0,3.0,87,0.00,,RA,1.55,VWS V14.01,2013-04-15 04:00:00,
2013-04-14 23:05:00,43.6,40.3,29.59,SW,232,0.0,1.0,88,0.00,,RA,1.55,VWS V14.01,2013-04-15 04:05:00,
2013-04-14 23:10:00,43.4,40.4,29.60,SSW,212,1.0,3.0,89,0.00,,RA,1.55,VWS V14.01,2013-04-15 04:10:00,
2013-04-14 23:15:00,43.2,40.2,29.61,SW,221,2.0,3.0,89,0.00,,RA,1.55,VWS V14.01,2013-04-15 04:15:00,
2013-04-14 23:20:00,43.3,40.0,29.60,WSW,249,1.0,3.0,88,0.00,,RA,1.55,VWS V14.01,2013-04-15 04:20:00,
2013-04-14 23:25:00,43.8,39.9,29.61,WNW,283,2.0,7.0,86,0.00,,RA,1.55,VWS V14.01,2013-04-15 04:25:00,
2013-04-14 23:30:00,43.9,40.0,29.61,West,280,1.0,7.0,86,0.00,,RA,1.55,VWS V14.01,2013-04-15 04:30:00,
2013-04-14 23:35:00,44.0,39.8,29.61,West,281,1.0,5.0,85,0.00,,RA,1.55,VWS V14.01,2013-04-15 04:35:00,
2013-04-14 23:40:00,43.9,39.7,29.61,West,270,2.0,5.0,85,0.00,,RA,1.55,VWS V14.01,2013-04-15 04:40:00,
2013-04-14 23:45:00,43.9,39.4,29.61,WSW,242,1.0,7.0,84,0.00,,RA,1.55,VWS V14.01,2013-04-15 04:45:00,
2013-04-14 23:50:00,43.8,39.3,29.61,West,270,2.0,7.0,84,0.00,,RA,1.55,VWS V14.01,2013-04-15 04:50:00,
2013-04-14 23:55:00,43.5,39.0,29.62,WSW,246,1.0,7.0,84,0.00,,RA,1.55,VWS V14.01,2013-04-15 04:55:00,